Tracking 19854 objects as of 23-Sep-2019
HD Live streaming from Space Station
objects crossing your sky now

ALE-1

Track ALE-1 now!
10-day predictions


NORAD ID: 43938
Int'l Code: 2019-003G
Perigee: 483.8 km
Apogee: 521.4 km
Inclination: 97.3 °
Period: 94.5 minutes
Semi major axis: 6873 km
RCS: Unknown
Launch date: January 18, 2019
Source: Japan (JPN)
Launch site: KAGOSHIMA SPACE CENTER UNIVERSITY OF TOKYO (KSCUT)
aabbcc
Your satellite tracking list
Your tracking list is empty




NASA's NSSDC Master Catalog

Two Line Element Set (TLE):
1 43938U 19003G   19265.85116303 +.00000297 +00000-0 +15238-4 0  9991
2 43938 097.2730 320.9564 0027380 095.8462 264.5897 15.23435505037723
Source of the keplerian elements: AFSPC